Portada
METAR-TAF:

METAR-TAF

Aeroports :

Narrandera, Austràlia

latitud: 34-42-08S, longitud: 146-30-44E, altitud: 144 m

Observació

L'informe es va fer fa 1 hora i 4 minuts, a les 19:00 UTC
Vent 1 kt del Nord/Nord-Est
Temperatura 9°C
Humitat 71%
Pressió 1017 hPa
Visibilitat 10 km o més

METAR: YNAR 131900Z AUTO 02001KT 9999 // NCD 09/04 Q1017

Hora: 07:04 (20:04 UTC)


TAF: manca

Observacions i pronòstics meteorològics de més de 4000 aeroports (METAR i TAF).

Les estacions disponibles són els punts grocs i vermells al mapa.

Posi el ratolí al punt desitjat per veure el nom de l'estació.

Feu clic per veure les observacions i els pronòstics meteorològics.

Per canviar el mapa: feu clic els botons verds amb una creu de color negre per apropar; al botó verd amb un guió per allunyar la imatge; o en les fletxes verdes per a mapes adjacents.


METAR-TAF: